Dewpoint
70 69 68 67 67 67 67 65 63 63 64 65 66 65 65 64 64 64 65 64 63 61 62 61 60 58 55 53 54 54 56 55 55 56 57 55 53 54 54 61 58 56 59
69 70 68 68 68 67 66 64 64 63 64 64 65 64 64 64 63 63 63 62 61 60 61 60 60 57 55 53 55 52 54 54 53 53 55 53 51 53 53 54 54 54 57
68 69 69 68 68 66 65 64 65 63 62 64 64 64 63 63 63 63 62 60 61 60 61 61 60 59 58 58 57 57 57 54 55 52 52 55 55 56 53 53 53 54 55
65 69 69 69 67 66 66 65 64 65 64 64 65 64 64 62 62 61 61 60 59 60 61 62 61 60 59 59 58 57 58 55 54 52 53 55 55 56 55 53 53 57 58
64 68 68 67 66 66 65 65 65 66 65 65 64 63 63 62 61 61 61 60 60 61 62 61 61 61 62 59 58 58 58 57 56 55 55 56 55 55 53 54 53 54 55
66 66 67 67 67 66 66 66 66 66 66 64 64 64 63 62 62 62 62 62 64 62 60 60 61 63 63 63 61 59 58 57 56 55 55 54 55 57 56 55 53 53 50
64 64 65 66 66 65 66 65 65 65 65 64 64 64 62 62 62 62 64 64 63 61 60 59 59 61 61 58 61 59 57 59 57 55 54 55 55 56 57 56 56 54 54
64 64 64 64 64 65 63 63 64 64 64 64 64 64 63 64 62 61 63 62 61 60 59 57 57 57 58 57 55 54 51 50 52 53 48 47 53 52 55 56 57 56 56
62 62 63 63 63 63 63 63 63 63 63 63 64 64 64 64 60 59 59 56 57 59 59 58 57 56 57 59 54 51 49 51 56 56 55 54 53 55 54 56 55 55 53
61 61 63 63 62 63 62 62 63 63 62 63 63 64 62 61 57 57 56 53 52 52 54 58 60 58 56 57 55 53 53 54 55 56 55 57 57 56 59 58 56 54 52
62 62 62 63 63 63 63 62 61 62 63 62 62 61 60 57 56 54 54 52 51 49 50 52 56 57 55 55 55 55 56 55 56 56 56 59 59 57 55 58 55 53 50
62 62 62 61 62 63 63 62 61 63 62 60 58 57 58 58 55 53 52 52 53 51 53 55 56 53 52 53 54 54 54 57 57 57 57 57 57 57 57 57 56 56 55
62 61 61 61 61 61 60 60 61 61 60 57 57 57 57 59 59 55 52 52 53 54 55 55 55 52 52 52 53 53 55 58 57 55 55 56 56 56 55 55 57 58 57
61 61 61 61 61 61 62 61 60 58 57 57 57 57 57 57 58 59 56 53 53 54 56 56 56 55 54 55 56 54 55 56 56 55 55 54 54 53 54 55 56 57 58
62 61 62 62 61 60 60 60 59 59 58 58 58 58 57 56 56 55 57 57 55 53 53 53 53 53 54 53 53 54 55 54 55 55 54 54 53 53 53 55 57 55 55
62 62 61 61 59 60 59 59 57 56 54 55 51 55 57 53 50 49 48 50 50 49 54 54 55 55 54 54 53 53 54 55 55 55 55 55 54 53 54 56 57 57 55
62 61 61 59 59 58 59 58 57 56 52 50 50 48 47 50 47 45 46 47 47 51 55 55 55 55 55 54 54 54 54 56 56 56 56 55 55 56 56 57 57 57 56
61 58 59 58 58 57 57 58 58 57 55 55 51 48 44 44 45 44 43 48 50 51 56 56 55 55 54 54 55 55 56 57 57 58 58 58 58 58 58 57 58 57 55
61 59 58 57 57 56 56 56 55 55 55 54 53 48 46 43 43 43 44 51 51 53 53 53 54 55 55 55 55 56 56 56 57 58 58 59 59 57 58 58 58 53 54
63 60 58 58 58 57 56 55 55 55 55 55 55 54 52 46 46 47 47 50 51 51 51 51 51 52 52 53 54 55 55 55 56 57 58 58 57 57 57 57 57 56 54
63 63 60 60 59 58 58 56 55 55 55 55 55 55 51 52 52 50 48 49 50 51 52 52 52 52 53 53 53 53 54 54 56 57 58 57 57 56 57 57 57 56 55
64 64 63 62 62 59 58 58 57 55 54 55 56 56 48 54 55 54 53 51 50 51 52 52 53 54 54 54 55 56 56 56 57 56 57 58 57 57 57 57 57 56 54
64 64 63 62 62 60 61 61 60 59 56 55 54 54 55 55 55 56 55 55 55 55 55 55 54 54 54 55 55 56 56 57 59 59 58 59 59 59 59 58 57 56 54
60 60 62 62 63 62 61 60 57 55 59 57 54 55 55 56 57 56 55 55 56 57 57 57 55 53 54 56 58 59 59 60 61 61 60 59 58 57 58 58 58 57 56
59 59 59 59 59 60 60 59 59 58 57 57 56 57 56 56 57 58 57 55 54 54 56 58 58 57 56 56 58 59 55 45 56 53 58 57 56 55 56 56 57 57 56
58 58 58 58 57 57 56 56 57 56 56 54 55 53 53 53 54 55 57 57 56 55 57 59 59 59 59 59 58 53 42 39 44 39 51 55 55 56 56 57 57 57 55
Lifted_Index
-4 -5 -5 -5 -4 -3 -2 -1 -2 -2 -1 0 -0 -0 -0 1 1 1 1 0 0 0 1 1 2 2 2 2 1 1 -0 -1 -1 -0 1 2 4 5 5 5 5 6 6
-5 -5 -6 -5 -5 -3 -2 -1 -2 -2 -1 0 -0 -1 -1 0 1 1 0 0 0 1 1 1 2 2 2 2 2 1 1 1 1 1 2 3 5 6 5 5 5 6 6
-5 -6 -7 -6 -5 -3 -2 -1 -2 -2 -1 -0 -0 -1 -1 -0 0 0 0 0 0 1 1 1 1 1 2 2 2 2 2 2 3 3 3 4 5 5 5 5 5 5 5
-4 -5 -7 -6 -4 -3 -2 -2 -2 -2 -1 -1 -1 -1 -1 -0 0 0 0 -0 0 1 1 1 1 1 1 2 2 3 3 4 4 4 4 4 4 4 4 5 4 4 3
-3 -4 -6 -6 -5 -3 -3 -3 -3 -2 -2 -1 -2 -2 -1 -0 0 0 0 0 0 0 1 1 1 1 1 2 2 2 3 3 4 3 3 3 3 3 3 4 3 3 2
-2 -3 -5 -5 -5 -4 -3 -3 -2 -2 -2 -2 -2 -2 -1 -0 0 0 0 -0 -0 -0 0 0 1 1 1 2 2 2 2 3 3 3 3 2 2 2 2 2 2 2 2
-1 -2 -3 -4 -4 -4 -3 -2 -2 -2 -2 -2 -2 -2 -1 -0 -0 -0 -1 -1 -1 -0 0 1 1 1 2 2 2 3 3 3 4 4 4 3 3 2 2 2 1 1 1
0 -0 -2 -3 -3 -3 -2 -1 -1 -2 -2 -2 -2 -1 -1 -1 -1 -1 -1 -1 -0 0 1 2 2 2 2 2 3 3 3 4 4 4 4 4 4 4 3 2 2 1 1
1 0 -0 -1 -2 -2 -1 -1 -1 -1 -1 -1 -1 -1 -1 -0 -1 -1 -1 -0 0 1 2 2 3 3 3 3 3 3 3 3 4 3 3 3 4 4 4 3 2 2 2
1 1 1 0 -0 -0 -0 -1 -0 -0 -0 -0 -0 -0 -0 0 0 0 0 1 1 2 2 3 3 3 3 3 3 3 2 2 2 2 2 2 2 2 3 3 3 2 2
1 1 1 1 1 0 0 0 1 1 0 0 1 1 1 1 1 2 2 3 3 3 4 4 3 3 3 2 2 2 2 2 2 2 2 2 1 1 1 1 2 1 1
0 0 0 1 1 0 0 1 1 1 1 1 1 1 2 2 2 3 3 4 4 5 5 5 4 3 2 2 2 2 2 2 2 2 2 1 1 1 1 1 1 1 1
-0 0 0 1 1 0 0 1 1 1 1 1 2 2 2 3 3 3 3 3 4 4 5 5 4 3 2 2 2 2 1 1 1 1 1 1 1 2 2 2 2 1 1
-0 -0 0 0 0 0 0 0 1 1 1 1 2 2 2 3 3 3 3 2 3 3 3 4 4 3 2 2 2 2 1 1 1 1 1 1 2 2 2 2 1 1 1
-1 -0 -0 0 0 0 0 0 1 1 1 2 2 2 2 2 2 2 2 2 2 2 2 3 3 2 2 2 2 2 1 1 1 1 1 1 1 1 1 0 0 0 0
-1 -1 -0 -0 0 0 0 0 1 1 2 2 2 2 2 2 2 2 2 2 2 1 1 1 2 2 2 2 3 2 2 1 1 0 1 0 -0 -1 -1 -1 -1 -1 -1
-2 -1 -1 -0 0 1 1 1 1 2 2 2 2 2 2 2 2 2 2 2 2 1 1 1 1 1 1 2 2 2 2 1 1 0 -0 -1 -1 -1 -1 -1 -1 -1 -1
-2 -2 -1 -0 0 1 2 2 2 2 2 2 2 2 2 2 2 2 2 2 2 2 1 0 0 0 1 1 1 1 1 0 -0 -1 -1 -1 -1 -1 -1 -1 -1 -1 -1
-3 -2 -2 -1 0 1 1 1 1 1 2 2 2 2 2 2 2 2 2 1 1 1 1 1 0 0 0 0 0 0 0 0 -0 -1 -1 -1 -1 -1 -1 -1 -1 -1 -1
-3 -3 -2 -1 -1 0 0 0 0 1 1 1 1 1 1 1 1 1 1 1 1 1 1 1 1 1 1 1 1 1 1 1 0 -0 -0 -1 -1 -1 -1 -1 -1 -1 -1
-2 -2 -2 -2 -1 -1 -0 -0 -0 -0 0 0 0 0 0 0 0 0 0 0 0 0 0 0 0 1 1 1 1 1 2 1 1 1 -0 -1 -1 -1 -1 -1 -1 -1 -1
-2 -2 -2 -2 -2 -1 -1 -1 -1 -1 -1 -1 -1 -0 -0 -0 -0 -0 -0 -0 -0 -0 -0 -0 -0 -0 -0 -0 0 1 1 1 1 0 -0 -1 -1 -1 -1 -0 -0 -0 -0
-1 -1 -2 -2 -2 -2 -1 -1 -1 -1 -1 -1 -1 -1 -1 -1 -0 -0 -0 -0 -1 -1 -1 -0 -0 -0 -0 -0 -1 -1 -0 -0 -0 -1 -1 -1 -1 -1 -0 -0 0 0 0
-1 -1 -1 -1 -2 -2 -2 -2 -1 -1 -2 -2 -2 -2 -1 -1 -1 -0 -0 -1 -1 -1 -1 -1 -1 -1 -0 -0 -1 -1 -1 -1 -1 -1 -1 -1 -0 -0 0 0 0 0 0
-1 -1 -0 -1 -2 -2 -2 -2 -1 -1 -2 -2 -2 -1 -1 -1 -0 -0 -0 -1 -1 -1 -1 -1 -1 -1 -1 -1 -1 -2 -2 -2 -1 -1 -1 -0 0 0 1 1 1 1 1
-1 -1 -0 -1 -1 -2 -2 -1 -1 -1 -1 -1 -1 -1 -1 -0 -0 -0 -0 -0 -1 -1 -1 -1 -1 -1 -1 -1 -1 -2 -2 -2 -2 -1 -1 -0 0 1 1 1 1 1 1